Latest Coastal Weather Observations for Coconut Island

IDQ60701

Issued at 10:51 pm EST Saturday 29 August 2015 (issued every 10 minutes, with the page automatically refreshed every 10 minutes)

About coastal observations | Map of coastal stations | Coastal observations for QLD | Marine services | Other Formats
Station Details ID: 027054 Name: COCONUT ISLAND Lat: -10.05 Lon: 143.07 Height: 3.5 m
Data from the previous 72 hours. | See also: Recent months at Coconut Island
Date/Time
EST
Temp

°C
Wind Pressure Rain
since 9am
mm
Weather Cloud Vis
km
Sea
Height
m
Swell
Dir
 
Speed
knots
Gust
knots
hPa Trend Height
m
Period
s
Dir
29/10:30pm 24.8 SSE 3 7 1014.9 - 0.0 - - - - - - -
29/10:00pm 25.0 SE 2 6 1015.1 - 0.0 - - - - - - -
29/09:30pm 25.1 SE 3 7 1015.1 - 0.0 - - - - - - -
29/09:00pm 25.2 SE 3 7 1014.9 - 0.0 - - - - - - -
29/08:30pm 25.1 SE 3 6 1014.8 - 0.0 - - - - - - -
29/08:00pm 25.3 SE 3 5 1014.4 - 0.0 - - - - - - -
29/07:30pm 25.2 SE 2 4 1014.1 - 0.0 - - - - - - -
29/07:00pm 25.3 SSE 2 5 1013.9 - 0.0 - - - - - - -
29/06:30pm 25.6 SSE 2 4 1013.7 - 0.0 - - - - - - -
29/06:00pm 26.1 SE 2 4 1013.4 - 0.0 - - - - - - -
29/05:30pm 27.1 SSE 3 6 1013.1 - 0.0 - - - - - - -
29/05:00pm 28.2 SE 2 5 1013.0 - 0.0 - - - - - - -
29/04:30pm 28.6 SSE 2 4 1012.8 - 0.0 - - - - - - -
29/04:00pm 28.7 SE 3 7 1012.7 - 0.0 - - - - - - -
29/03:30pm 29.2 SE 3 8 1012.9 - 0.0 - - - - - - -
29/03:00pm 30.2 SSE 3 5 1013.1 - 0.0 - - - - - - -
29/02:30pm 31.5 SE 2 5 1013.4 - 0.0 - - - - - - -
29/02:00pm 31.2 SE 3 7 1013.8 - 0.0 - - - - - - -
29/01:30pm 31.0 SSE 3 7 1014.2 - 0.0 - - - - - - -
29/01:00pm 29.6 SE 3 8 1014.5 - 0.0 - - - - - - -
29/12:30pm 29.8 SE 3 8 1015.0 - 0.0 - - - - - - -
29/12:00pm 29.2 SE 3 6 1015.4 - 0.0 - - - - - - -
29/11:30am 29.5 ESE 4 9 1015.7 - 0.0 - - - - - - -
29/11:00am 29.0 SE 4 8 1016.1 - 0.0 - - - - - - -
29/10:30am 28.8 SE 4 9 1016.5 - 0.0 - - - - - - -
29/10:00am 28.3 SE 4 9 1016.6 - 0.0 - - - - - - -
29/09:30am 27.4 SE 3 8 1016.4 - 0.0 - - - - - - -
29/09:00am 27.4 SE 2 6 1016.1 - 0.0 - - - - - - -
29/08:30am 27.0 SE 2 4 1015.8 - 0.0 - - - - - - -
29/08:00am 26.5 SE 3 6 1015.4 - 0.0 - - - - - - -
29/07:30am 24.8 SE 2 5 1015.1 - 0.0 - - - - - - -
29/07:00am 23.8 SE 2 6 1014.7 - 0.0 - - - - - - -
29/06:30am 23.5 SSE 2 5 1014.4 - 0.0 - - - - - - -
29/06:00am 23.6 SE 2 7 1014.2 - 0.0 - - - - - - -
29/05:30am 23.6 SE 2 7 1014.0 - 0.0 - - - - - - -
29/05:00am 23.7 SSE 3 5 1013.9 - 0.0 - - - - - - -
29/04:30am 23.6 SE 3 7 1014.0 - 0.0 - - - - - - -
29/04:00am 23.7 SE 2 6 1014.0 - 0.0 - - - - - - -
29/03:30am 23.8 SE 3 8 1014.1 - 0.0 - - - - - - -
29/03:00am 24.1 SE 3 7 1014.1 - 0.0 - - - - - - -
29/02:30am 24.1 SE 2 5 1014.3 - 0.0 - - - - - - -
29/02:00am 24.4 SE 3 7 1014.6 - 0.0 - - - - - - -
29/01:30am 24.4 SE 3 7 1014.7 - 0.0 - - - - - - -
29/01:00am 24.3 SE 4 7 1014.9 - 0.0 - - - - - - -
29/12:30am 24.2 SE 3 6 1015.1 - 0.0 - - - - - - -
29/12:00am 24.3 SSE 2 4 1015.3 - 0.0 - - - - - - -
 
Date/Time
EST
Temp

°C
Wind Pressure Rain
since 9am
mm
Weather Cloud Vis
km
Sea
Height
m
Swell
Dir
 
Speed
knots
Gust
knots
hPa Trend Height
m
Period
s
Dir
28/11:30pm 24.3 SE 3 7 1015.4 - 0.0 - - - - - - -
28/11:00pm 24.4 SE 3 7 1015.5 - 0.0 - - - - - - -
28/10:30pm 24.5 SE 3 7 1015.5 - 0.0 - - - - - - -
28/10:00pm 24.6 SE 3 7 1015.3 - 0.0 - - - - - - -
28/09:30pm 24.8 SE 3 7 1015.3 - 0.0 - - - - - - -
28/09:00pm 24.9 SE 3 5 1015.1 - 0.0 - - - - - - -
28/08:30pm 25.1 SE 3 6 1014.7 - 0.0 - - - - - - -
28/08:00pm 24.9 SE 2 7 1014.3 - 0.0 - - - - - - -
28/07:30pm 25.1 SE 3 6 1013.9 - 0.0 - - - - - - -
28/07:00pm 24.9 SE 3 7 1013.7 - 0.0 - - - - - - -
28/06:30pm 25.4 SE 3 8 1013.2 - 0.0 - - - - - - -
28/06:00pm 26.5 SE 3 8 1013.0 - 0.0 - - - - - - -
28/05:30pm 26.6 SE 3 8 1012.7 - 0.0 - - - - - - -
28/05:00pm 28.3 SE 3 8 1012.5 - 0.0 - - - - - - -
28/04:30pm 28.1 SE 3 6 1012.5 - 0.0 - - - - - - -
28/04:00pm 29.4 SE 3 8 1012.4 - 0.0 - - - - - - -
28/03:30pm 30.1 SE 3 8 1012.4 - 0.0 - - - - - - -
28/03:00pm 29.9 SE 4 8 1012.8 - 0.0 - - - - - - -
28/02:30pm 30.2 SE 3 10 1013.1 - 0.0 - - - - - - -
28/02:00pm 30.2 SE 4 8 1013.5 - 0.0 - - - - - - -
28/01:30pm 30.3 SE 3 9 1013.8 - 0.0 - - - - - - -
28/01:00pm 29.9 SE 3 7 1014.3 - 0.0 - - - - - - -
28/12:30pm 29.5 SE 4 8 1014.7 - 0.0 - - - - - - -
28/12:00pm 29.6 SE 5 10 1015.2 - 0.0 - - - - - - -
28/11:30am 28.8 SE 4 8 1015.6 - 0.0 - - - - - - -
28/11:00am 29.3 ESE 6 12 1015.8 - 0.0 - - - - - - -
28/10:30am 28.6 ESE 6 12 1016.1 - 0.0 - - - - - - -
28/10:00am 28.1 SE 4 10 1016.2 - 0.0 - - - - - - -
28/09:30am 27.6 SE 4 9 1016.1 - 0.0 - - - - - - -
28/09:00am 27.4 ESE 5 11 1015.9 - 0.0 - - - - - - -
28/08:30am 26.3 SE 3 7 1015.8 - 0.0 - - - - - - -
28/08:00am 25.9 SE 4 8 1015.6 - 0.0 - - - - - - -
28/07:30am 24.3 SE 3 7 1015.2 - 0.0 - - - - - - -
28/07:00am 23.6 SE 4 10 1014.8 - 0.0 - - - - - - -
28/06:30am 23.5 ESE 4 9 1014.5 - 0.0 - - - - - - -
28/06:00am 23.3 SE 3 7 1014.3 - 0.0 - - - - - - -
28/05:30am 23.5 SE 3 6 1013.9 - 0.0 - - - - - - -
28/05:00am 23.6 SSE 3 5 1013.7 - 0.0 - - - - - - -
28/04:30am 23.5 SSE 3 6 1013.5 - 0.0 - - - - - - -
28/04:00am 23.7 SSE 3 5 1013.4 - 0.0 - - - - - - -
28/03:30am 23.8 SSE 3 6 1013.3 - 0.0 - - - - - - -
28/03:00am 23.7 SSE 3 5 1013.4 - 0.0 - - - - - - -
28/02:30am 23.8 SSE 3 5 1013.5 - 0.0 - - - - - - -
28/02:00am 23.9 SSE 2 4 1014.3 - 0.0 - - - - - - -
28/01:30am 24.1 SE 3 6 1014.6 - 0.0 - - - - - - -
28/01:00am 24.1 SE 3 6 1015.1 - 0.0 - - - - - - -
28/12:30am 24.3 SE 3 7 1015.3 - 0.0 - - - - - - -
28/12:00am 24.5 SE 3 6 1015.7 - 0.0 - - - - - - -
 
Date/Time
EST
Temp

°C
Wind Pressure Rain
since 9am
mm
Weather Cloud Vis
km
Sea
Height
m
Swell
Dir
 
Speed
knots
Gust
knots
hPa Trend Height
m
Period
s
Dir
27/11:30pm 24.5 SE 3 7 1015.7 - 0.0 - - - - - - -
27/11:00pm 24.5 SE 4 9 1015.8 - 0.0 - - - - - - -
27/10:30pm 24.6 SE 4 8 1015.8 - 0.0 - - - - - - -
27/10:00pm 24.7 SE 4 12 1015.7 - 0.0 - - - - - - -
27/09:30pm 24.8 SE 4 8 1015.7 - 0.0 - - - - - - -
27/09:00pm 24.8 SE 4 7 1015.4 - 0.0 - - - - - - -
27/08:30pm 24.8 SE 4 8 1015.1 - 0.0 - - - - - - -
27/08:00pm 25.0 SSE 4 8 1014.9 - 0.0 - - - - - - -
27/07:30pm 25.1 SSE 4 7 1014.3 - 0.0 - - - - - - -
27/07:00pm 25.4 SSE 4 8 1013.7 - 0.0 - - - - - - -
27/06:30pm 25.5 SSE 4 8 1013.3 - 0.0 - - - - - - -
27/06:00pm 25.9 SSE 4 6 1012.8 - 0.0 - - - - - - -
27/05:30pm 26.6 SSE 5 7 1012.5 - 0.0 - - - - - - -
27/05:00pm 27.8 SSE 4 8 1012.4 - 0.0 - - - - - - -
27/04:30pm 28.9 SE 4 7 1012.4 - 0.0 - - - - - - -
27/04:00pm 28.3 SSE 4 7 1012.3 - 0.0 - - - - - - -
27/03:30pm 30.1 SSE 4 7 1012.2 - 0.0 - - - - - - -
27/03:00pm 30.6 SE 4 9 1012.2 - 0.0 - - - - - - -
27/02:30pm 31.2 SE 4 8 1012.3 - 0.0 - - - - - - -
27/02:00pm 31.1 SE 4 8 1012.7 - 0.0 - - - - - - -
27/01:30pm 30.7 SE 4 9 1013.1 - 0.0 - - - - - - -
27/01:00pm 29.8 SE 6 12 1013.5 - 0.0 - - - - - - -
27/12:30pm 29.5 ESE 5 11 1014.0 - 0.0 - - - - - - -
27/12:00pm 29.4 SE 5 12 1014.4 - 0.0 - - - - - - -
27/11:30am 28.5 SE 4 8 1014.6 - 0.0 - - - - - - -
27/11:00am 28.5 SE 4 10 1015.0 - 0.0 - - - - - - -
27/10:30am 28.2 SE 4 10 1015.1 - 0.0 - - - - - - -
27/10:00am 28.0 ESE 5 11 1015.3 - 0.0 - - - - - - -
27/09:30am 28.0 ESE 5 11 1015.1 - 0.0 - - - - - - -
27/09:00am 27.7 SE 4 8 1014.9 - 0.0 - - - - - - -
27/08:30am 26.4 SE 3 6 1014.7 - 0.0 - - - - - - -
27/08:00am 26.0 SE 3 8 1014.4 - 0.0 - - - - - - -
27/07:30am 24.3 SE 3 7 1014.3 - 0.0 - - - - - - -
27/07:00am 23.4 SE 4 9 1014.0 - 0.0 - - - - - - -
27/06:30am 23.0 SE 4 9 1013.6 - 0.0 - - - - - - -
27/06:00am 23.2 SE 4 9 1013.2 - 0.0 - - - - - - -
27/05:30am 23.4 SE 3 9 1012.9 - 0.0 - - - - - - -
27/05:00am 23.6 SE 3 7 1012.8 - 0.0 - - - - - - -
27/04:30am 23.6 SE 3 6 1012.6 - 0.0 - - - - - - -
27/04:00am 23.9 SE 4 11 1012.7 - 0.0 - - - - - - -
27/03:30am 23.8 SE 2 6 1012.8 - 0.0 - - - - - - -
27/03:00am 23.4 SE 3 7 1013.0 - 0.0 - - - - - - -
27/02:30am 23.7 SE 3 8 1013.2 - 0.0 - - - - - - -
27/02:00am 23.8 SE 2 7 1013.4 - 0.0 - - - - - - -
27/01:30am 24.0 SSE 3 5 1013.6 - 0.0 - - - - - - -
27/01:00am 24.0 SE 2 4 1014.1 - 0.0 - - - - - - -
27/12:30am 24.1 SSE 3 6 1014.4 - 0.0 - - - - - - -
27/12:00am 24.1 SE 3 6 1014.7 - 0.0 - - - - - - -
 
Date/Time
EST
Temp

°C
Wind Pressure Rain
since 9am
mm
Weather Cloud Vis
km
Sea
Height
m
Swell
Dir
 
Speed
knots
Gust
knots
hPa Trend Height
m
Period
s
Dir
26/11:30pm 24.3 SE 3 8 1014.9 - 0.0 - - - - - - -
26/11:00pm 24.3 SE 3 6 1015.0 - 0.0 - - - - - - -

Other Formats:

Comma delimited format used in spreadsheet applications
http://www.bom.gov.au/fwo/IDQ60701/IDQ60701.94182.axf

JavaScript Object Notation format (JSON) in row-major order
http://www.bom.gov.au/fwo/IDQ60701/IDQ60701.94182.json